Time,TemperatureF,DewpointF,PressureIn,WindDirection,WindDirectionDegrees,WindSpeedMPH,WindSpeedGustMPH,Humidity,HourlyPrecipIn,Conditions,Clouds,dailyrainin,SoftwareType,DateUTC
2014-08-23 00:01:00,63.3,57.0,30.08,West,275,0.0,0.0,80,0.00,,,0.00,Wunderground v.1.15,2014-08-23 04:01:00,
2014-08-23 00:02:00,63.2,56.9,30.08,West,275,0.0,0.0,80,0.00,,,0.00,Wunderground v.1.15,2014-08-23 04:02:00,
2014-08-23 00:06:00,63.2,56.9,30.08,NE,36,1.0,2.0,80,0.00,,,0.00,Wunderground v.1.15,2014-08-23 04:06:00,
2014-08-23 00:07:00,63.2,56.9,30.08,NE,36,1.0,2.0,80,0.00,,,0.00,Wunderground v.1.15,2014-08-23 04:07:00,
2014-08-23 00:12:00,63.1,56.8,30.08,NE,36,0.0,1.0,80,0.00,,,0.00,Wunderground v.1.15,2014-08-23 04:12:00,
2014-08-23 00:13:00,63.1,56.8,30.08,NE,36,0.0,1.0,80,0.00,,,0.00,Wunderground v.1.15,2014-08-23 04:13:00,
2014-08-23 00:14:00,63.2,56.9,30.08,NE,36,0.0,1.0,80,0.00,,,0.00,Wunderground v.1.15,2014-08-23 04:14:00,
2014-08-23 00:21:00,63.1,56.8,30.07,NE,36,0.0,0.0,80,0.00,,,0.00,Wunderground v.1.15,2014-08-23 04:21:00,
2014-08-23 00:27:00,63.0,56.7,30.07,NE,36,0.0,0.0,80,0.00,,,0.00,Wunderground v.1.15,2014-08-23 04:27:00,
2014-08-23 00:33:00,62.9,56.6,30.07,NE,36,0.0,0.0,80,0.00,,,0.00,Wunderground v.1.15,2014-08-23 04:33:00,
2014-08-23 00:39:00,62.8,56.5,30.07,NE,36,0.0,1.0,80,0.00,,,0.00,Wunderground v.1.15,2014-08-23 04:39:00,
2014-08-23 00:44:00,62.8,56.5,30.07,ENE,62,0.0,1.0,80,0.00,,,0.00,Wunderground v.1.15,2014-08-23 04:44:00,
2014-08-23 00:51:00,62.7,56.4,30.07,ENE,62,0.0,0.0,80,0.00,,,0.00,Wunderground v.1.15,2014-08-23 04:51:00,
2014-08-23 00:57:00,62.7,56.4,30.08,ENE,61,0.0,1.0,80,0.00,,,0.00,Wunderground v.1.15,2014-08-23 04:57:00,
2014-08-23 01:03:00,62.7,56.1,30.08,NW,305,0.0,1.0,79,0.00,,,0.00,Wunderground v.1.15,2014-08-23 05:03:00,
2014-08-23 01:09:00,62.6,56.3,30.08,NNE,25,0.0,2.0,80,0.00,,,0.00,Wunderground v.1.15,2014-08-23 05:09:00,
2014-08-23 01:14:00,62.5,56.2,30.08,NNE,25,0.0,0.0,80,0.00,,,0.00,Wunderground v.1.15,2014-08-23 05:14:00,
2014-08-23 01:21:00,62.4,56.1,30.08,NNE,25,0.0,0.0,80,0.00,,,0.00,Wunderground v.1.15,2014-08-23 05:21:00,
2014-08-23 01:27:00,62.4,56.1,30.08,NNE,25,0.0,0.0,80,0.00,,,0.00,Wunderground v.1.15,2014-08-23 05:27:00,
2014-08-23 01:32:00,62.3,56.0,30.08,NE,40,0.0,1.0,80,0.00,,,0.00,Wunderground v.1.15,2014-08-23 05:32:00,
2014-08-23 01:38:00,62.3,56.0,30.08,NE,40,0.0,1.0,80,0.00,,,0.00,Wunderground v.1.15,2014-08-23 05:38:00,
2014-08-23 01:44:00,62.3,56.0,30.08,NE,40,0.0,0.0,80,0.00,,,0.00,Wunderground v.1.15,2014-08-23 05:44:00,
2014-08-23 01:51:00,62.3,56.0,30.07,NE,40,0.0,0.0,80,0.00,,,0.00,Wunderground v.1.15,2014-08-23 05:51:00,
2014-08-23 01:56:00,62.1,55.9,30.07,NE,40,0.0,1.0,80,0.00,,,0.00,Wunderground v.1.15,2014-08-23 05:56:00,
2014-08-23 02:02:00,62.1,55.9,30.07,NE,40,0.0,1.0,80,0.00,,,0.00,Wunderground v.1.15,2014-08-23 06:02:00,
2014-08-23 02:07:00,62.1,55.9,30.07,NE,49,0.0,1.0,80,0.00,,,0.00,Wunderground v.1.15,2014-08-23 06:07:00,
2014-08-23 02:13:00,62.0,55.8,30.07,NE,49,0.0,1.0,80,0.00,,,0.00,Wunderground v.1.15,2014-08-23 06:13:00,
2014-08-23 02:19:00,62.0,55.8,30.07,NE,49,0.0,1.0,80,0.00,,,0.00,Wunderground v.1.15,2014-08-23 06:19:00,
2014-08-23 02:26:00,61.9,55.7,30.07,NE,49,0.0,1.0,80,0.00,,,0.00,Wunderground v.1.15,2014-08-23 06:26:00,
2014-08-23 02:32:00,61.9,55.7,30.06,NE,42,1.0,1.0,80,0.00,,,0.00,Wunderground v.1.15,2014-08-23 06:32:00,
2014-08-23 02:38:00,61.8,55.6,30.07,NE,47,1.0,1.0,80,0.00,,,0.00,Wunderground v.1.15,2014-08-23 06:38:00,
2014-08-23 02:44:00,61.8,55.6,30.07,NNE,30,1.0,1.0,80,0.00,,,0.00,Wunderground v.1.15,2014-08-23 06:44:00,
2014-08-23 02:49:00,61.8,55.6,30.07,NNE,31,0.0,1.0,80,0.00,,,0.00,Wunderground v.1.15,2014-08-23 06:49:00,
2014-08-23 02:56:00,61.7,55.5,30.06,NE,46,0.0,1.0,80,0.00,,,0.00,Wunderground v.1.15,2014-08-23 06:56:00,
2014-08-23 03:01:00,61.7,55.5,30.06,NE,45,0.0,0.0,80,0.00,,,0.00,Wunderground v.1.15,2014-08-23 07:01:00,
2014-08-23 03:06:00,61.7,55.5,30.06,East,82,0.0,0.0,80,0.00,,,0.00,Wunderground v.1.15,2014-08-23 07:06:00,
2014-08-23 03:12:00,61.6,55.4,30.06,East,80,0.0,0.0,80,0.00,,,0.00,Wunderground v.1.15,2014-08-23 07:12:00,
2014-08-23 03:17:00,61.6,55.4,30.06,ENE,65,0.0,0.0,80,0.00,,,0.00,Wunderground v.1.15,2014-08-23 07:17:00,
2014-08-23 03:22:00,61.6,55.4,30.06,ENE,66,0.0,0.0,80,0.00,,,0.00,Wunderground v.1.15,2014-08-23 07:22:00,
2014-08-23 03:28:00,61.5,55.3,30.06,ENE,65,0.0,1.0,80,0.00,,,0.00,Wunderground v.1.15,2014-08-23 07:28:00,
2014-08-23 03:34:00,61.4,55.2,30.06,NE,50,1.0,2.0,80,0.00,,,0.00,Wunderground v.1.15,2014-08-23 07:34:00,
2014-08-23 03:39:00,61.4,55.2,30.06,NE,50,1.0,2.0,80,0.00,,,0.00,Wunderground v.1.15,2014-08-23 07:39:00,
2014-08-23 03:44:00,61.3,55.1,30.06,NE,50,0.0,1.0,80,0.00,,,0.00,Wunderground v.1.15,2014-08-23 07:44:00,
2014-08-23 03:51:00,61.2,55.0,30.06,NE,40,0.0,0.0,80,0.00,,,0.00,Wunderground v.1.15,2014-08-23 07:51:00,
2014-08-23 03:56:00,61.1,54.9,30.06,NE,40,0.0,1.0,80,0.00,,,0.00,Wunderground v.1.15,2014-08-23 07:56:00,
2014-08-23 04:02:00,61.1,54.9,30.06,NE,41,0.0,0.0,80,0.00,,,0.00,Wunderground v.1.15,2014-08-23 08:02:00,
2014-08-23 04:07:00,61.0,54.8,30.06,NE,41,0.0,1.0,80,0.00,,,0.00,Wunderground v.1.15,2014-08-23 08:07:00,
2014-08-23 04:13:00,60.9,54.7,30.06,NE,41,0.0,1.0,80,0.00,,,0.00,Wunderground v.1.15,2014-08-23 08:13:00,
2014-08-23 04:19:00,60.8,54.6,30.06,NE,41,0.0,1.0,80,0.00,,,0.00,Wunderground v.1.15,2014-08-23 08:19:00,
2014-08-23 04:24:00,60.7,54.5,30.06,NE,41,0.0,1.0,80,0.00,,,0.00,Wunderground v.1.15,2014-08-23 08:24:00,
2014-08-23 04:31:00,60.6,54.4,30.06,North,350,0.0,2.0,80,0.00,,,0.00,Wunderground v.1.15,2014-08-23 08:31:00,
2014-08-23 04:37:00,60.5,54.3,30.06,North,350,0.0,2.0,80,0.00,,,0.00,Wunderground v.1.15,2014-08-23 08:37:00,
2014-08-23 04:43:00,60.5,54.3,30.06,NNE,26,1.0,1.0,80,0.00,,,0.00,Wunderground v.1.15,2014-08-23 08:43:00,
2014-08-23 04:49:00,60.4,54.2,30.06,NNE,26,0.0,1.0,80,0.00,,,0.00,Wunderground v.1.15,2014-08-23 08:49:00,
2014-08-23 04:56:00,60.4,54.2,30.07,NNE,26,0.0,1.0,80,0.00,,,0.00,Wunderground v.1.15,2014-08-23 08:56:00,
2014-08-23 05:02:00,60.4,54.2,30.07,NNE,26,0.0,0.0,80,0.00,,,0.00,Wunderground v.1.15,2014-08-23 09:02:00,
2014-08-23 05:08:00,60.3,54.1,30.07,NE,41,1.0,2.0,80,0.00,,,0.00,Wunderground v.1.15,2014-08-23 09:08:00,
2014-08-23 05:13:00,60.3,54.1,30.07,NE,41,1.0,1.0,80,0.00,,,0.00,Wunderground v.1.15,2014-08-23 09:13:00,
2014-08-23 05:19:00,60.3,54.1,30.07,NE,41,1.0,1.0,80,0.00,,,0.00,Wunderground v.1.15,2014-08-23 09:19:00,
2014-08-23 05:24:00,60.3,54.1,30.07,ESE,121,1.0,1.0,80,0.00,,,0.00,Wunderground v.1.15,2014-08-23 09:24:00,
2014-08-23 05:31:00,60.3,54.1,30.08,ESE,117,0.0,1.0,80,0.00,,,0.00,Wunderground v.1.15,2014-08-23 09:31:00,
2014-08-23 05:36:00,60.2,54.0,30.08,ENE,57,1.0,1.0,80,0.00,,,0.00,Wunderground v.1.15,2014-08-23 09:36:00,
2014-08-23 05:42:00,60.2,54.0,30.08,ENE,57,1.0,1.0,80,0.00,,,0.00,Wunderground v.1.15,2014-08-23 09:42:00,
2014-08-23 05:47:00,60.2,54.0,30.08,NE,56,0.0,1.0,80,0.00,,,0.00,Wunderground v.1.15,2014-08-23 09:47:00,
2014-08-23 05:53:00,60.0,53.8,30.08,ENE,69,1.0,1.0,80,0.00,,,0.00,Wunderground v.1.15,2014-08-23 09:53:00,
2014-08-23 05:59:00,59.9,53.7,30.08,ENE,67,1.0,1.0,80,0.00,,,0.00,Wunderground v.1.15,2014-08-23 09:59:00,
2014-08-23 06:06:00,59.8,53.6,30.08,ENE,67,0.0,1.0,80,0.00,,,0.00,Wunderground v.1.15,2014-08-23 10:06:00,
2014-08-23 06:12:00,59.8,53.6,30.08,ENE,63,1.0,1.0,80,0.00,,,0.00,Wunderground v.1.15,2014-08-23 10:12:00,
2014-08-23 06:17:00,59.7,53.5,30.08,NE,43,1.0,1.0,80,0.00,,,0.00,Wunderground v.1.15,2014-08-23 10:17:00,
2014-08-23 06:23:00,59.6,53.4,30.08,NE,43,0.0,0.0,80,0.00,,,0.00,Wunderground v.1.15,2014-08-23 10:23:00,
2014-08-23 06:29:00,59.6,53.4,30.08,NE,41,0.0,1.0,80,0.00,,,0.00,Wunderground v.1.15,2014-08-23 10:29:00,
2014-08-23 06:34:00,59.6,53.4,30.09,NE,42,0.0,1.0,80,0.00,,,0.00,Wunderground v.1.15,2014-08-23 10:34:00,
2014-08-23 06:41:00,59.8,53.6,30.09,NE,46,0.0,0.0,80,0.00,,,0.00,Wunderground v.1.15,2014-08-23 10:41:00,
2014-08-23 06:47:00,59.8,53.6,30.09,NE,46,0.0,1.0,80,0.00,,,0.00,Wunderground v.1.15,2014-08-23 10:47:00,
2014-08-23 06:53:00,59.8,53.6,30.09,NNE,21,0.0,1.0,80,0.00,,,0.00,Wunderground v.1.15,2014-08-23 10:53:00,
2014-08-23 06:59:00,59.9,53.7,30.09,NE,39,0.0,1.0,80,0.00,,,0.00,Wunderground v.1.15,2014-08-23 10:59:00,
2014-08-23 07:06:00,59.9,53.7,30.10,NE,39,0.0,1.0,80,0.00,,,0.00,Wunderground v.1.15,2014-08-23 11:06:00,
2014-08-23 07:12:00,60.0,53.8,30.10,NNE,13,1.0,1.0,80,0.00,,,0.00,Wunderground v.1.15,2014-08-23 11:12:00,
2014-08-23 07:18:00,60.2,54.0,30.10,NNE,13,1.0,1.0,80,0.00,,,0.00,Wunderground v.1.15,2014-08-23 11:18:00,
2014-08-23 07:24:00,60.3,54.1,30.10,NNE,13,1.0,1.0,80,0.00,,,0.00,Wunderground v.1.15,2014-08-23 11:24:00,
2014-08-23 07:31:00,60.4,54.2,30.10,NE,50,0.0,2.0,80,0.00,,,0.00,Wunderground v.1.15,2014-08-23 11:31:00,
2014-08-23 07:36:00,60.4,54.2,30.10,NE,41,1.0,2.0,80,0.00,,,0.00,Wunderground v.1.15,2014-08-23 11:36:00,
2014-08-23 07:42:00,60.4,54.2,30.10,NE,41,1.0,1.0,80,0.00,,,0.00,Wunderground v.1.15,2014-08-23 11:42:00,
2014-08-23 07:49:00,60.5,54.3,30.09,NE,42,0.0,1.0,80,0.00,,,0.00,Wunderground v.1.15,2014-08-23 11:49:00,
2014-08-23 07:54:00,60.6,54.4,30.10,NE,38,1.0,1.0,80,0.00,,,0.00,Wunderground v.1.15,2014-08-23 11:54:00,
2014-08-23 07:59:00,60.8,54.6,30.10,NE,41,0.0,1.0,80,0.00,,,0.00,Wunderground v.1.15,2014-08-23 11:59:00,
2014-08-23 08:06:00,60.8,54.6,30.09,NE,35,1.0,4.0,80,0.00,,,0.00,Wunderground v.1.15,2014-08-23 12:06:00,
2014-08-23 08:11:00,60.9,54.7,30.10,NE,34,1.0,1.0,80,0.00,,,0.00,Wunderground v.1.15,2014-08-23 12:11:00,
2014-08-23 08:17:00,61.1,54.9,30.10,NE,34,1.0,2.0,80,0.00,,,0.00,Wunderground v.1.15,2014-08-23 12:17:00,
2014-08-23 08:23:00,61.4,55.5,30.10,East,80,1.0,1.0,81,0.00,,,0.00,Wunderground v.1.15,2014-08-23 12:23:00,
2014-08-23 08:29:00,61.8,55.9,30.10,ENE,60,1.0,1.0,81,0.00,,,0.00,Wunderground v.1.15,2014-08-23 12:29:00,
2014-08-23 08:36:00,62.1,56.2,30.10,NE,40,1.0,1.0,81,0.00,,,0.00,Wunderground v.1.15,2014-08-23 12:36:00,
2014-08-23 08:41:00,62.2,56.3,30.10,SE,138,1.0,2.0,81,0.00,,,0.00,Wunderground v.1.15,2014-08-23 12:41:00,
2014-08-23 08:47:00,62.3,56.4,30.10,NE,55,1.0,2.0,81,0.00,,,0.00,Wunderground v.1.15,2014-08-23 12:47:00,
2014-08-23 08:52:00,62.3,56.4,30.09,SSW,196,1.0,1.0,81,0.00,,,0.00,Wunderground v.1.15,2014-08-23 12:52:00,
2014-08-23 08:58:00,62.6,56.7,30.10,ESE,111,1.0,1.0,81,0.00,,,0.00,Wunderground v.1.15,2014-08-23 12:58:00,
2014-08-23 09:04:00,62.7,56.8,30.09,NE,50,1.0,3.0,81,0.00,,,0.00,Wunderground v.1.15,2014-08-23 13:04:00,
2014-08-23 09:09:00,63.0,57.1,30.10,ESE,123,1.0,3.0,81,0.00,,,0.00,Wunderground v.1.15,2014-08-23 13:09:00,
2014-08-23 09:16:00,63.2,57.3,30.10,ESE,122,1.0,1.0,81,0.00,,,0.00,Wunderground v.1.15,2014-08-23 13:16:00,
2014-08-23 09:21:00,63.6,57.7,30.10,ENE,58,1.0,1.0,81,0.00,,,0.00,Wunderground v.1.15,2014-08-23 13:21:00,
2014-08-23 09:27:00,64.4,58.4,30.09,NE,53,1.0,1.0,81,0.00,,,0.00,Wunderground v.1.15,2014-08-23 13:27:00,
2014-08-23 09:33:00,65.4,59.1,30.10,ESE,117,1.0,2.0,80,0.00,,,0.00,Wunderground v.1.15,2014-08-23 13:33:00,
2014-08-23 09:39:00,65.9,58.8,30.09,NNE,31,1.0,2.0,78,0.00,,,0.00,Wunderground v.1.15,2014-08-23 13:39:00,
2014-08-23 09:44:00,66.2,59.5,30.10,SE,133,1.0,3.0,79,0.00,,,0.00,Wunderground v.1.15,2014-08-23 13:44:00,
2014-08-23 09:51:00,66.6,59.5,30.10,ENE,75,1.0,1.0,78,0.00,,,0.00,Wunderground v.1.15,2014-08-23 13:51:00,
2014-08-23 09:57:00,66.7,59.6,30.10,ENE,64,1.0,1.0,78,0.00,,,0.00,Wunderground v.1.15,2014-08-23 13:57:00,
2014-08-23 10:03:00,67.1,60.0,30.10,ENE,74,1.0,3.0,78,0.00,,,0.00,Wunderground v.1.15,2014-08-23 14:03:00,
2014-08-23 10:08:00,66.9,59.5,30.10,ENE,74,1.0,3.0,77,0.00,,,0.00,Wunderground v.1.15,2014-08-23 14:08:00,
2014-08-23 10:14:00,67.2,59.7,30.10,SE,136,1.0,1.0,77,0.00,,,0.00,Wunderground v.1.15,2014-08-23 14:14:00,
2014-08-23 10:21:00,67.0,59.9,30.10,NE,55,1.0,1.0,78,0.00,,,0.00,Wunderground v.1.15,2014-08-23 14:21:00,
2014-08-23 10:27:00,67.1,59.3,30.10,NNE,31,1.0,3.0,76,0.00,,,0.00,Wunderground v.1.15,2014-08-23 14:27:00,
2014-08-23 10:33:00,67.7,59.9,30.10,ENE,60,2.0,5.0,76,0.00,,,0.00,Wunderground v.1.15,2014-08-23 14:33:00,
2014-08-23 10:39:00,67.5,60.0,30.10,ESE,111,2.0,5.0,77,0.00,,,0.00,Wunderground v.1.15,2014-08-23 14:39:00,
2014-08-23 10:44:00,67.3,59.8,30.10,NE,46,1.0,3.0,77,0.00,,,0.00,Wunderground v.1.15,2014-08-23 14:44:00,
2014-08-23 10:51:00,67.0,59.5,30.10,NE,56,1.0,1.0,77,0.00,,,0.00,Wunderground v.1.15,2014-08-23 14:51:00,
2014-08-23 10:57:00,67.0,59.5,30.10,ESE,122,1.0,2.0,77,0.00,,,0.00,Wunderground v.1.15,2014-08-23 14:57:00,
2014-08-23 11:04:00,67.8,60.0,30.10,East,101,1.0,4.0,76,0.00,,,0.00,Wunderground v.1.15,2014-08-23 15:04:00,
2014-08-23 11:09:00,68.1,60.2,30.10,East,98,1.0,4.0,76,0.00,,,0.00,Wunderground v.1.15,2014-08-23 15:09:00,
2014-08-23 11:16:00,68.3,60.1,30.10,NE,42,1.0,2.0,75,0.00,,,0.00,Wunderground v.1.15,2014-08-23 15:16:00,
2014-08-23 11:22:00,69.2,60.9,30.10,SSE,157,2.0,2.0,75,0.00,,,0.00,Wunderground v.1.15,2014-08-23 15:22:00,
2014-08-23 11:28:00,70.1,60.7,30.10,NE,49,2.0,3.0,72,0.00,,,0.00,Wunderground v.1.15,2014-08-23 15:28:00,
2014-08-23 11:34:00,70.0,61.7,30.10,South,186,1.0,2.0,75,0.00,,,0.00,Wunderground v.1.15,2014-08-23 15:34:00,
2014-08-23 11:39:00,70.5,62.2,30.10,South,190,1.0,2.0,75,0.00,,,0.00,Wunderground v.1.15,2014-08-23 15:39:00,
2014-08-23 11:46:00,71.7,62.2,30.09,ESE,119,1.0,1.0,72,0.00,,,0.00,Wunderground v.1.15,2014-08-23 15:46:00,
2014-08-23 11:52:00,71.7,62.2,30.09,ENE,63,1.0,1.0,72,0.00,,,0.00,Wunderground v.1.15,2014-08-23 15:52:00,
2014-08-23 11:58:00,71.8,62.3,30.09,NNE,33,1.0,2.0,72,0.00,,,0.00,Wunderground v.1.15,2014-08-23 15:58:00,
2014-08-23 12:04:00,72.3,62.0,30.09,ESE,108,1.0,1.0,70,0.00,,,0.00,Wunderground v.1.15,2014-08-23 16:04:00,
2014-08-23 12:09:00,71.9,61.6,30.09,ESE,106,1.0,2.0,70,0.00,,,0.00,Wunderground v.1.15,2014-08-23 16:09:00,
2014-08-23 12:16:00,71.1,61.6,30.09,NE,39,1.0,3.0,72,0.00,,,0.00,Wunderground v.1.15,2014-08-23 16:16:00,
2014-08-23 12:22:00,71.1,61.2,30.09,NNE,33,1.0,2.0,71,0.00,,,0.00,Wunderground v.1.15,2014-08-23 16:22:00,
2014-08-23 12:28:00,70.6,61.1,30.09,NE,48,1.0,2.0,72,0.00,,,0.00,Wunderground v.1.15,2014-08-23 16:28:00,
2014-08-23 12:34:00,70.2,60.7,30.09,NE,45,0.0,2.0,72,0.00,,,0.00,Wunderground v.1.15,2014-08-23 16:34:00,
2014-08-23 12:39:00,70.0,60.9,30.09,NE,53,0.0,2.0,73,0.00,,,0.00,Wunderground v.1.15,2014-08-23 16:39:00,
2014-08-23 12:44:00,70.3,61.2,30.09,NNE,29,1.0,3.0,73,0.00,,,0.00,Wunderground v.1.15,2014-08-23 16:44:00,
2014-08-23 12:51:00,70.8,62.5,30.09,NE,49,1.0,1.0,75,0.00,,,0.00,Wunderground v.1.15,2014-08-23 16:51:00,
2014-08-23 12:57:00,70.8,61.7,30.08,SE,146,1.0,3.0,73,0.00,,,0.00,Wunderground v.1.15,2014-08-23 16:57:00,
2014-08-23 13:03:00,70.9,61.4,30.08,South,175,1.0,1.0,72,0.00,,,0.00,Wunderground v.1.15,2014-08-23 17:03:00,
2014-08-23 13:08:00,70.6,61.5,30.09,NE,42,1.0,2.0,73,0.00,,,0.00,Wunderground v.1.15,2014-08-23 17:08:00,
2014-08-23 13:14:00,69.9,60.8,30.08,ENE,59,1.0,2.0,73,0.00,,,0.00,Wunderground v.1.15,2014-08-23 17:14:00,
2014-08-23 13:21:00,69.3,61.0,30.09,North,360,1.0,1.0,75,0.00,,,0.00,Wunderground v.1.15,2014-08-23 17:21:00,
2014-08-23 13:27:00,69.0,61.1,30.09,NE,56,1.0,2.0,76,0.00,,,0.00,Wunderground v.1.15,2014-08-23 17:27:00,
2014-08-23 13:33:00,68.9,61.0,30.09,ENE,57,1.0,1.0,76,0.00,,,0.00,Wunderground v.1.15,2014-08-23 17:33:00,
2014-08-23 13:39:00,69.1,61.2,30.09,SW,228,1.0,2.0,76,0.00,,,0.00,Wunderground v.1.15,2014-08-23 17:39:00,
2014-08-23 13:46:00,69.2,60.6,30.09,NE,34,1.0,2.0,74,0.00,,,0.00,Wunderground v.1.15,2014-08-23 17:46:00,
2014-08-23 13:52:00,69.3,61.0,30.09,NE,36,1.0,1.0,75,0.00,,,0.00,Wunderground v.1.15,2014-08-23 17:52:00,
2014-08-23 13:58:00,69.4,61.5,30.08,NE,36,0.0,1.0,76,0.00,,,0.00,Wunderground v.1.15,2014-08-23 17:58:00,
2014-08-23 14:04:00,69.5,61.6,30.09,East,96,0.0,1.0,76,0.00,,,0.00,Wunderground v.1.15,2014-08-23 18:04:00,
2014-08-23 14:09:00,69.4,61.1,30.09,ESE,123,0.0,1.0,75,0.00,,,0.00,Wunderground v.1.15,2014-08-23 18:09:00,
2014-08-23 14:16:00,69.1,61.2,30.08,NNE,24,1.0,3.0,76,0.00,,,0.00,Wunderground v.1.15,2014-08-23 18:16:00,
2014-08-23 14:21:00,68.9,61.0,30.08,NNE,24,0.0,1.0,76,0.00,,,0.00,Wunderground v.1.15,2014-08-23 18:21:00,
2014-08-23 14:27:00,69.4,62.2,30.08,South,181,0.0,3.0,78,0.00,,,0.00,Wunderground v.1.15,2014-08-23 18:27:00,
2014-08-23 14:33:00,70.6,61.9,30.08,ENE,69,1.0,2.0,74,0.00,,,0.00,Wunderground v.1.15,2014-08-23 18:33:00,
2014-08-23 14:39:00,70.6,61.5,30.08,ENE,61,1.0,2.0,73,0.00,,,0.00,Wunderground v.1.15,2014-08-23 18:39:00,
2014-08-23 14:44:00,70.4,61.7,30.08,SE,136,1.0,2.0,74,0.00,,,0.00,Wunderground v.1.15,2014-08-23 18:44:00,
2014-08-23 14:51:00,70.1,61.4,30.08,South,176,1.0,1.0,74,0.00,,,0.00,Wunderground v.1.15,2014-08-23 18:51:00,
2014-08-23 14:57:00,69.9,61.2,30.08,ENE,69,1.0,1.0,74,0.00,,,0.00,Wunderground v.1.15,2014-08-23 18:57:00,
2014-08-23 15:02:00,69.8,61.5,30.08,SSE,164,1.0,1.0,75,0.00,,,0.00,Wunderground v.1.15,2014-08-23 19:02:00,
2014-08-23 15:08:00,69.7,61.0,30.08,North,9,1.0,3.0,74,0.00,,,0.00,Wunderground v.1.15,2014-08-23 19:08:00,
2014-08-23 15:13:00,69.8,61.5,30.08,SE,141,1.0,2.0,75,0.00,,,0.00,Wunderground v.1.15,2014-08-23 19:13:00,
2014-08-23 15:18:00,69.7,61.4,30.08,SE,136,1.0,2.0,75,0.00,,,0.00,Wunderground v.1.15,2014-08-23 19:18:00,